sat.trackr.live / text

‹ back to catalog

XINGCHI-1 02A

NORAD 58496 · 2023-187A

PAYLOAD ACTIVE UNKNOWN

§ Identity

Operator
Country
EGYP
Launch date
2023-12-04
Launch site
JSC
Launch vehicle
Mass (kg)
RCS (m²)

External: N2YO · Heavens-Above · Gunter

§ Orbital elements

Epoch: 2026-05-25T05:11:38.561856Z

Period
97.02 min
Inclination
97.9259°
Eccentricity
0.0010812
Mean motion
14.84188961 rev/d
Perigee alt
608.6 km
Apogee alt
623.7 km
Semi-major
6,994.3 km
B*
1.5166e-4
RAAN
228.2121°
Arg perigee
213.8778°
Mean anomaly
146.1746°
Rev number
13,371

§ Raw data

XINGCHI-1 02A1 58496U 23187A   26145.21641854  .00001215  00000+0  15166-3 0  99922 58496  97.9259 228.2121 0010812 213.8778 146.1746 14.84188961133715

JSON: /api/v1/satellites/58496 · /tle

For live sub-satellite position, see the globe view (requires WebGL).

§ Visibility from observer

Set your observer location to see the next 7 days of passes ≥ 10°. The values pass through the URL so the page stays shareable.

No JS? Fill the form by hand. The geolocation button needs JavaScript.